| time (UTC) | temp C | wind direction | speed KPH | gust KPH | rain 1hr cm | rain 24hr cm | rain mn cm | humidity % | barometer mb |
| 20260506233923 | -17 | 0 | 0.0 | 0.0 | 0.00 | 0.00 | 0.00 | 100 | 1009.1 |
| 20260506232651 | -17 | 0 | 0.0 | 0.0 | 0.00 | 0.00 | 0.00 | 100 | 1009.1 |
| 20260506231325 | -17 | 0 | 0.0 | 0.0 | 0.00 | 0.00 | 0.00 | 100 | 1009.2 |
| 20260506225949 | -17 | 0 | 0.0 | 0.0 | 0.00 | 0.00 | 0.00 | 100 | 1009.2 |
| 20260506224616 | -17 | 0 | 0.0 | 0.0 | 0.00 | 0.00 | 0.00 | 100 | 1009.2 |
| 20260506223144 | -17 | 0 | 0.0 | 0.0 | 0.00 | 0.00 | 0.00 | 100 | 1009.2 |
| 20260506221731 | -17 | 0 | 0.0 | 0.0 | 0.00 | 0.00 | 0.00 | 100 | 1009.2 |
| 20260506220329 | -17 | 0 | 0.0 | 0.0 | 0.00 | 0.00 | 0.00 | 100 | 1009.3 |
| 20260506213715 | -17 | 0 | 0.0 | 0.0 | 0.00 | 0.00 | 0.00 | 100 | 1009.3 |
| 20260506212356 | -17 | 0 | 0.0 | 0.0 | 0.00 | 0.00 | 0.00 | 100 | 1009.2 |
| 20260506211013 | -17 | 0 | 0.0 | 0.0 | 0.00 | 0.00 | 0.00 | 100 | 1009.0 |
| 20260506205516 | -17 | 0 | 0.0 | 0.0 | 0.00 | 0.00 | 0.00 | 100 | 1008.8 |
| 20260506204033 | -17 | 0 | 0.0 | 0.0 | 0.00 | 0.00 | 0.00 | 100 | 1008.6 |
| 20260506202659 | -17 | 0 | 0.0 | 0.0 | 0.00 | 0.00 | 0.00 | 100 | 1008.6 |
| 20260506201158 | -17 | 0 | 0.0 | 0.0 | 0.00 | 0.00 | 0.00 | 100 | 1008.3 |
| 20260506195735 | -17 | 0 | 0.0 | 0.0 | 0.00 | 0.00 | 0.00 | 100 | 1007.9 |
| 20260506194305 | -17 | 0 | 0.0 | 0.0 | 0.00 | 0.00 | 0.00 | 100 | 1007.8 |
| 20260506192856 | -17 | 0 | 0.0 | 0.0 | 0.00 | 0.00 | 0.00 | 100 | 1007.7 |
| 20260506191449 | -17 | 0 | 0.0 | 0.0 | 0.00 | 0.00 | 0.00 | 100 | 1007.6 |
| 20260506190201 | -17 | 0 | 0.0 | 0.0 | 0.00 | 0.00 | 0.00 | 100 | 1007.6 |
| 20260506184836 | -17 | 0 | 0.0 | 0.0 | 0.00 | 0.00 | 0.00 | 100 | 1007.6 |
| 20260506183551 | -17 | 0 | 0.0 | 0.0 | 0.00 | 0.00 | 0.00 | 100 | 1007.6 |
| 20260506182336 | -17 | 0 | 0.0 | 0.0 | 0.00 | 0.00 | 0.00 | 100 | 1007.5 |
| 20260506181011 | -17 | 0 | 0.0 | 0.0 | 0.00 | 0.00 | 0.00 | 100 | 1007.6 |
| 20260506175731 | -17 | 0 | 0.0 | 0.0 | 0.00 | 0.00 | 0.00 | 100 | 1007.6 |
| 20260506174319 | -17 | 0 | 0.0 | 0.0 | 0.00 | 0.00 | 0.00 | 100 | 1007.5 |
| 20260506172945 | -17 | 0 | 0.0 | 0.0 | 0.00 | 0.00 | 0.00 | 100 | 1007.6 |
| 20260506171628 | -17 | 0 | 0.0 | 0.0 | 0.00 | 0.00 | 0.00 | 100 | 1007.6 |
| 20260506170136 | -17 | 0 | 0.0 | 0.0 | 0.00 | 0.00 | 0.00 | 100 | 1007.5 |
| 20260506164748 | -17 | 0 | 0.0 | 0.0 | 0.00 | 0.00 | 0.00 | 100 | 1007.6 |
| 20260506163525 | -17 | 0 | 0.0 | 0.0 | 0.00 | 0.00 | 0.00 | 100 | 1007.6 |
| 20260506162144 | -17 | 0 | 0.0 | 0.0 | 0.00 | 0.00 | 0.00 | 100 | 1007.5 |
| 20260506160801 | -17 | 0 | 0.0 | 0.0 | 0.00 | 0.00 | 0.00 | 100 | 1007.7 |
| 20260506155545 | -17 | 0 | 0.0 | 0.0 | 0.00 | 0.00 | 0.00 | 100 | 1007.7 |
| 20260506154244 | 20 | 0 | 0.0 | 0.0 | 0.00 | 0.00 | 0.00 | 6 | 1007.5 |
| 20260506152803 | 20 | 330 | 4.8 | 4.8 | 0.00 | 0.00 | 0.00 | 6 | 1007.5 |
| 20260506151436 | 20 | 328 | 9.7 | 16.1 | 0.00 | 0.00 | 0.00 | 6 | 1007.4 |
| 20260506145941 | 20 | 136 | 3.2 | 4.8 | 0.00 | 0.00 | 0.00 | 6 | 1007.6 |
| 20260506144631 | 20 | 136 | 3.2 | 4.8 | 0.00 | 0.00 | 0.00 | 6 | 1007.6 |
| 20260506143249 | 20 | 326 | 1.6 | 9.7 | 0.00 | 0.00 | 0.00 | 6 | 1007.8 |
| 20260506142005 | 20 | 318 | 4.8 | 4.8 | 0.00 | 0.00 | 0.00 | 6 | 1007.9 |
| 20260506140801 | 20 | 290 | 3.2 | 9.7 | 0.00 | 0.00 | 0.00 | 6 | 1008.1 |
| 20260506135359 | 19 | 273 | 1.6 | 3.2 | 0.00 | 0.00 | 0.00 | 6 | 1008.3 |
| 20260506134151 | 20 | 293 | 1.6 | 6.4 | 0.00 | 0.00 | 0.00 | 6 | 1008.2 |
| 20260506132844 | 20 | 332 | 12.9 | 16.1 | 0.00 | 0.00 | 0.00 | 6 | 1008.2 |
| 20260506131438 | 20 | 316 | 1.6 | 4.8 | 0.00 | 0.00 | 0.00 | 6 | 1008.3 |
| 20260506130030 | -17 | 0 | 0.0 | 0.0 | 0.00 | 0.00 | 0.00 | 100 | 1008.5 |
| 20260506124830 | -17 | 0 | 0.0 | 0.0 | 0.00 | 0.00 | 0.00 | 100 | 1008.5 |
| 20260506123344 | -17 | 0 | 0.0 | 0.0 | 0.00 | 0.00 | 0.00 | 100 | 1008.5 |
| 20260506122005 | -17 | 0 | 0.0 | 0.0 | 0.00 | 0.00 | 0.00 | 100 | 1008.4 |
| 20260506120546 | 18 | 185 | 3.2 | 12.9 | 0.00 | 0.00 | 0.00 | 6 | 1009.2 |
| 20260506115330 | 18 | 185 | 3.2 | 12.9 | 0.00 | 0.00 | 0.00 | 6 | 1009.2 |
| 20260506114026 | 18 | 185 | 3.2 | 12.9 | 0.00 | 0.00 | 0.00 | 6 | 1009.2 |
| 20260506112550 | 18 | 185 | 3.2 | 12.9 | 0.00 | 0.00 | 0.00 | 6 | 1009.2 |
| 20260506111336 | 18 | 185 | 3.2 | 12.9 | 0.00 | 0.00 | 0.00 | 6 | 1009.2 |
| 20260506110046 | 18 | 185 | 3.2 | 12.9 | 0.00 | 0.00 | 0.00 | 6 | 1009.2 |
| 20260506105615 | 18 | 185 | 3.2 | 12.9 | 0.00 | 0.00 | 0.00 | 6 | 1009.2 |
| 20260506104339 | 19 | 216 | 1.6 | 12.9 | 0.00 | 0.00 | 0.00 | 6 | 1009.2 |
| 20260506102919 | 20 | 0 | 0.0 | 1.6 | 0.00 | 0.00 | 0.00 | 6 | 1009.1 |
| 20260506101621 | 20 | 0 | 0.0 | 1.6 | 0.00 | 0.00 | 0.00 | 6 | 1009.1 |
| 20260506100326 | 20 | 229 | 3.2 | 12.9 | 0.00 | 0.00 | 0.00 | 6 | 1009.3 |
| 20260506095026 | 19 | 165 | 3.2 | 3.2 | 0.00 | 0.00 | 0.00 | 6 | 1009.2 |
| 20260506093816 | 18 | 244 | 4.8 | 9.7 | 0.00 | 0.00 | 0.00 | 6 | 1009.2 |
| 20260506092340 | 19 | 148 | 1.6 | 6.4 | 0.00 | 0.00 | 0.00 | 6 | 1009.0 |
| 20260506091101 | 19 | 148 | 3.2 | 4.8 | 0.00 | 0.00 | 0.00 | 7 | 1009.0 |
| 20260506085829 | 18 | 153 | 1.6 | 9.7 | 0.00 | 0.00 | 0.00 | 7 | 1008.9 |
| 20260506084351 | 18 | 148 | 8.0 | 9.7 | 0.00 | 0.00 | 0.00 | 7 | 1008.9 |
| 20260506082936 | -17 | 0 | 0.0 | 0.0 | 0.00 | 0.00 | 0.00 | 100 | 1008.8 |
| 20260506081711 | -17 | 0 | 0.0 | 0.0 | 0.00 | 0.00 | 0.00 | 100 | 1008.8 |
| 20260506080246 | -17 | 0 | 0.0 | 0.0 | 0.00 | 0.00 | 0.00 | 100 | 1008.7 |
| 20260506072329 | -17 | 0 | 0.0 | 0.0 | 0.00 | 0.00 | 0.00 | 100 | 1008.6 |
| 20260506070945 | -17 | 0 | 0.0 | 0.0 | 0.00 | 0.00 | 0.00 | 100 | 1008.7 |
| 20260506061836 | 16 | 0 | 0.0 | 0.0 | 0.00 | 0.00 | 0.00 | 7 | 1008.8 |
| 20260506060611 | 16 | 125 | 1.6 | 3.2 | 0.00 | 0.00 | 0.00 | 7 | 1008.7 |
| 20260506051401 | 16 | 172 | 1.6 | 1.6 | 0.00 | 0.00 | 0.00 | 7 | 1008.1 |
| 20260506044805 | 16 | 0 | 0.0 | 0.0 | 0.00 | 0.00 | 0.00 | 8 | 1008.0 |
| 20260506043520 | 16 | 0 | 0.0 | 3.2 | 0.00 | 0.00 | 0.00 | 8 | 1007.9 |
| 20260506042216 | 16 | 129 | 1.6 | 3.2 | 0.00 | 0.00 | 0.00 | 8 | 1007.9 |
| 20260506040903 | 16 | 0 | 0.0 | 1.6 | 0.00 | 0.00 | 0.00 | 8 | 1007.8 |
| 20260506035531 | 16 | 165 | 3.2 | 8.0 | 0.00 | 0.00 | 0.00 | 8 | 1007.9 |
| 20260506034156 | 17 | 0 | 0.0 | 1.6 | 0.00 | 0.00 | 0.00 | 8 | 1007.9 |
| 20260506032944 | 17 | 0 | 0.0 | 1.6 | 0.00 | 0.00 | 0.00 | 8 | 1007.9 |
| 20260506030237 | 17 | 0 | 0.0 | 1.6 | 0.00 | 0.00 | 0.00 | 8 | 1007.8 |
| 20260506024934 | 17 | 0 | 0.0 | 0.0 | 0.00 | 0.00 | 0.00 | 8 | 1007.9 |
| 20260506023516 | 17 | 133 | 3.2 | 3.2 | 0.00 | 0.00 | 0.00 | 8 | 1007.9 |
| 20260506022051 | 17 | 130 | 1.6 | 3.2 | 0.00 | 0.00 | 0.00 | 8 | 1008.0 |
| 20260506020656 | 17 | 0 | 0.0 | 1.6 | 0.00 | 0.00 | 0.00 | 8 | 1008.0 |
| 20260506015246 | 17 | 0 | 0.0 | 3.2 | 0.00 | 0.00 | 0.00 | 8 | 1007.9 |
| 20260506014018 | 17 | 0 | 0.0 | 1.6 | 0.00 | 0.00 | 0.00 | 8 | 1008.0 |
| 20260506012806 | 17 | 126 | 1.6 | 1.6 | 0.00 | 0.00 | 0.00 | 8 | 1008.1 |
| 20260506011512 | 17 | 124 | 1.6 | 3.2 | 0.00 | 0.00 | 0.00 | 8 | 1008.1 |
| 20260506010126 | 17 | 124 | 1.6 | 3.2 | 0.00 | 0.00 | 0.00 | 8 | 1008.1 |
| 20260506004818 | 17 | 152 | 1.6 | 3.2 | 0.00 | 0.00 | 0.00 | 7 | 1008.3 |
| 20260506003559 | 17 | 127 | 1.6 | 3.2 | 0.00 | 0.00 | 0.00 | 8 | 1008.4 |
| 20260506002401 | 17 | 146 | 1.6 | 3.2 | 0.00 | 0.00 | 0.00 | 8 | 1008.5 |
| 20260506001036 | 17 | 163 | 3.2 | 3.2 | 0.00 | 0.00 | 0.00 | 8 | 1008.5 |
| 20260505235541 | 17 | 157 | 3.2 | 6.4 | 0.00 | 0.00 | 0.00 | 8 | 1008.5 |